Powrót do katalogu

ASTRO H

AktywnyNaukaVLEO
NORAD 41337·PAYLOAD·🇯🇵 Japan

Wystrzelony Feb 17, 2016 z Tanegashima Space Center

Loading…

Następne Przeloty (najbliższe 24 godziny)

TLE

ŚwieżeSource: Space-Track

Epoka: Sep 14, 2026, 13:29 UTC

1 41337U 16012A   26257.56246678  .00002306  00000-0  12952-3 0  9997
2 41337  30.9981 216.8109 0009316  72.9877 287.1781 15.10863322580813

Śledź ASTRO H w czasie rzeczywistym z AllMySat

Download on the App Store